SHO weather

King Mswati III International Airport
Manzini, Lubombo, Swaziland

Public forecast

Using degrees Celsius for public forecast. Weather courtesy of forecast.io.

Current aviation weather report (METAR) for King Mswati III International Airport

Retrieved 2020/02/24 04:00 UTC (24 minutes ago):

FDSK 240400Z 20004KT 9999 BKN030 18/14 Q1021 TEMPO 8000 -DZ

Closest aviation forecast (TAF) to King Mswati III International Airport

Forecast is more than 12 hours old.

Closest forecast is Matsapha Airport, 24.3 nm (45.0 km) WSW. Retrieved 2020/01/07 06:39 UTC (2 months ago):

TAF TAF FDMS 070400Z 0706/0718 03007KT 9999 SCT035 BECMG 0712/0714 CAVOK